Location: Newark
(1.4667°N, 173.0333°E)
Time: 01:36:31
(UTC+00:00)

N. Korean satellite - Visible Passes

Search period start: 20 March 2019 00:00
Search period end: 30 March 2019 00:00
Orbit: 455 x 510 km, 97.2° (Epoch: 18 March)

Date Brightness Start Highest point End Pass type
(mag) Time Alt. Az. Time Alt. Az. Time Alt. Az.
21 Mar 8.7 17:51:40 10° NE 17:54:55 32° E 17:58:14 10° SSE visible
22 Mar 10.0 17:28:25 10° ENE 17:30:11 13° ESE 17:31:59 10° SE visible
24 Mar 7.0 18:10:12 10° NNE 18:13:49 71° E 18:17:31 10° S visible
25 Mar 9.1 17:45:59 10° NE 17:49:05 26° E 17:52:13 10° SSE visible
26 Mar 10.4 07:10:04 10° WSW 07:10:48 11° WSW 07:11:32 10° W visible
26 Mar 10.3 17:23:24 10° E 17:24:21 11° ESE 17:25:17 10° ESE visible
28 Mar 7.5 18:04:21 10° NNE 18:07:57 56° E 18:11:36 10° S visible
29 Mar 9.5 17:40:19 10° NE 17:43:12 22° E 17:46:06 10° SSE visible
